Regional Weather Roundup
Issued by NWS

Home | Current Version | Previous Version | Graphics & Text | Print | Product List | Glossary Off
Versions: 1 2 3 4 5 6 7 8 9 10 11 12 13 14 15 16 17 18 19 20 21 22 23 24 25 26 27 28 29 30 31 32 33 34 35 36 37 38 39 40 41 42 43 44 45 46 47 48 49 50

302
ASUS43 KDMX 171701
RWRIA

WEATHER ROUNDUP FOR IOWA
NATIONAL WEATHER SERVICE DES MOINES IA
1100 AM CST SAT FEB 17 2018

NOTE: "FAIR" INDICATES FEW OR NO CLOUDS BELOW 12,000 FEET WITH NO
SIGNIFICANT WEATHER AND/OR OBSTRUCTIONS TO VISIBILITY.

* - THESE STATIONS ARE NOT NWS STATIONS...THUS NOT UNDER NWS
QUALITY CONTROL.  THEY ALSO DO NOT REPORT WEATHER SUCH
AS PRECIPITATION OR FOG.

IAZ001>003-012>014-020>022-031>034-043>046-171800-
   NORTHWEST IOWA

CITY           SKY/WX    TMP DP  RH WIND       PRES   REMARKS
CARROLL *      PTSUNNY   32  27  80 W18       29.94R WCI  20
CHEROKEE *     SUNNY     29  25  86 W7        29.95S WCI  22
DENISON *      SUNNY     32  25  74 NW10G17   29.96S WCI  24
LE MARS *      SUNNY     30  25  80 W5        29.96R WCI  25
ORANGE CITY *  SUNNY     27  25  93 W7        29.94R WCI  19
SHELDON *      CLOUDY    27  27 100 W13       29.92R WCI  16
SIOUX CITY     SUNNY     29  23  78 NW7       29.98R WCI  22
SPENCER        SUNNY     29  24  82 W14       29.92R WCI  18
STORM LAKE *   MOSUNNY   27  25  93 W16       29.92S WCI  14
$$

IAZ055>058-069>071-079>083-090>094-171800-
   SOUTHWEST IOWA

CITY           SKY/WX    TMP DP  RH WIND       PRES   REMARKS
ATLANTIC *     MOSUNNY   34  28  80 NW15G21   29.96S WCI  24
AUDUBON *      MOSUNNY   32  28  86 NW10G18   29.95F WCI  24
CLARINDA *     SUNNY     39  27  60 N15G25    30.01R WCI  31
COUNCIL BLFS * SUNNY     37  25  60 NW13G20   29.97R WCI  29
CRESTON *      PTSUNNY   37  21  52 W21G30    29.96R WCI  27
HARLAN  *      MOSUNNY   34  28  80 NW16G23   29.99S WCI  23
LAMONI         MOSUNNY   39  21  48 W22G28    29.95R WCI  29
RED OAK *      SUNNY     39  27  60 NW13G21   29.98R WCI  32
SHENANDOAH *   SUNNY     39  25  56 N12G22    30.00R WCI  32
$$

IAZ047>049-059>061-072>074-084-171800-
   CENTRAL IOWA

CITY           SKY/WX    TMP DP  RH WIND       PRES   REMARKS
AMES           LGT SNOW  26  23  88 SW8       29.95S FOG     WCI  18
ANKENY *       LGT SNOW  27  25  93 SW6       29.98R WCI  20
BOONE *        LGT SNOW  27  25  93 SW10      29.94R WCI  17
CHARITON *     CLOUDY    34  21  60 W13G21    29.95R WCI  25
DES MOINES     LGT SNOW  29  26  89 W9        29.96R FOG     WCI  20
GRINNELL*      LGT SNOW  27  24  89 SW7       29.96R VSB 1   WCI  19
KNOXVILLE *    LGT SNOW  32  25  74 W15G22    29.95R VSB 1   WCI  22
MARSHALLTOWN   SNOW      24  23  96 SW7       29.94F VSB 1/4 WCI  16
NEWTON *       SNOW      25  23  93 W6        29.96R VSB 1/4 WCI  18
PELLA *        CLOUDY    31  22  69 W7        29.97R WCI  24
$$

IAZ004>006-015-016-023>025-035-036-171800-
   NORTH CENTRAL IOWA

CITY           SKY/WX    TMP DP  RH WIND       PRES   REMARKS
CLARION *      CLOUDY    23  23 100 S12       29.94R WCI  12
ESTHERVILLE    PTSUNNY   27  22  81 W13       29.91R WCI  16
FORT DODGE *   FLURRIES  29  24  82 SW8       29.94S WCI  21
MASON CITY     LGT SNOW  24  21  88 S10       29.93R VSB 3/4 WCI  14
FOREST CITY *  FLURRIES  27  23  86 SW9       29.92R WCI  17
WEBSTER CITY * LGT SNOW  25  23  93 SW7       29.92S WCI  17
IOWA FALLS *   SNOW      25  23  89 SW8       29.94S VSB 1/2 WCI  17
$$

IAZ007>011-017>019-026>030-037>042-050>054-066-171800-
   NORTHEAST IOWA

CITY           SKY/WX    TMP DP  RH WIND       PRES   REMARKS
CEDAR RAPIDS   LGT SNOW  28  23  81 S8        29.95F VSB 3/4 WCI  20
CHARLES CITY * SNOW      23  23 100 S13       29.93R VSB 1/2 WCI  11
CLINTON *      CLOUDY    29  21  72 SE9       29.99F WCI  20
DECORAH *      LGT SNOW  23  21  93 SW7       29.92F VSB 3/4 WCI  15
DUBUQUE        CLOUDY    26  17  68 S15       29.95F WCI  14
MONTICELLO *   FAIR      28  19  69 S7        29.96F WCI  21
OELWEIN *      MIX PCPN  25  25 100 S9        29.95S VSB 1   WCI  15
WATERLOO       LGT SNOW  23  21  92 S7        29.95F VSB 1   WCI  15
$$

IAZ064-065-067-068-078-171800-
   EAST CENTRAL IOWA

CITY           SKY/WX    TMP DP  RH WIND       PRES   REMARKS
DAVENPORT      FAIR      33  24  69 S13       29.99F WCI  24
IOWA CITY      CLOUDY    30  21  69 SE3       29.98F
MT. PLEASANT * LGT SNOW  32  27  80 S9        29.97R WCI  24
MUSCATINE *    CLOUDY    32  23  69 SE6       29.98F WCI  26
QUAD CITIES    CLOUDY    33  25  72 S10       29.97F WCI  25
$$

IAZ062-063-075>077-085>089-095>099-171800-
   SOUTHEAST IOWA

CITY           SKY/WX    TMP DP  RH WIND       PRES   REMARKS
BURLINGTON     CLOUDY    32  25  75 S14       29.97F WCI  22
FAIRFIELD *    HAZE      30  27  86 SW12      29.95F VSB 3/4 WCI  21
FORT MADISON * LGT SNOW  32  28  86 S12       29.98F WCI  23
KEOKUK *       LGT SNOW  32  30  93 S12G20    29.98F VSB 3/4 WCI  23
OSKALOOSA *    LGT SNOW  29  26  90 SW9       29.96R WCI  21
OTTUMWA        LGT SNOW  30  26  85 SW8       29.95S FOG     WCI  22
WASHINGTON *   CLOUDY    32  28  86 SW10      29.97S WCI  24
$$

ABBREVIATIONS USED IN REMARKS
   TC - TEMPERATURES IN CELSIUS
  WCI - WIND CHILL INDEX
   HX - HEAT INDEX
  VSB - VISIBILITY
$$





USA.gov is the U.S. government's official web portal to all federal, state and local government web resources and services.